Location: ???????
(55.4630°N, 37.8225°E)
Time: 15:39:14
(UTC+00:00)

Daily predictions for brighter satellites

Satellite Brightness Start Highest point End
(mag) Time Altitude Azimuth Time Altitude Azimuth Time Altitude Azimuth
NOSS 3-3 (C) 3.9 15:07:04 10° SW 15:12:29 77° SE 15:19:06 10° NE
GP-B 3.3 15:09:20 10° S 15:13:42 76° W 15:18:06 10° N
SKYMED 2 4.1 15:11:45 10° NNE 15:15:49 38° E 15:19:53 10° SSE
Cosmos 2061 Rocket 4.4 15:09:33 10° NNW 15:15:57 76° W 15:22:13 10° S
SAR-Lupe-4 3.5 15:13:21 10° SSE 15:16:54 66° ENE 15:20:27 10° N
Meteor 1-28 Rocket 3.5 15:14:17 10° N 15:17:34 59° WNW 15:20:50 10° SSW
Cosmos 1674 Rocket 3.8 15:13:44 10° SSW 15:18:09 77° WNW 15:22:37 10° N
Cosmos 2344 4.5 15:13:28 10° SSE 15:19:25 25° ESE 15:25:02 10° ENE
Sich 1 Rocket 4.2 15:14:56 10° NNW 15:19:28 67° W 15:23:59 10° S
USA 234 3.8 15:14:11 10° SE 15:20:40 63° SSW 15:27:12 10° WNW
CZ-4C R/B 2.2 15:18:22 10° WSW 15:22:59 76° NW 15:29:04 10° NE
Cosmos 1346 Rocket 3.8 15:21:02 10° SE 15:23:49 21° E 15:26:38 10° NE
Cosmos 2263 Rocket 3.2 15:20:44 10° SSE 15:25:15 25° ESE 15:29:47 10° NE
SPOT 1/Viking Rocket 3.7 15:20:11 10° SSE 15:25:19 82° WSW 15:30:30 10° NNW
Cosmos 2098 Rocket 4.1 15:24:11 10° NNE 15:25:52 14° ENE 15:27:36 10° E
RESURS DK-1 3.1 15:23:32 10° NNW 15:27:09 32° NE 15:30:44 10° ESE
Cosmos 1782 2.8 15:27:42 10° N 15:31:11 43° ENE 15:34:37 10° SE
SAR-Lupe-5 4.1 15:28:57 10° NNE 15:31:23 56° ESE 15:33:45 10° S
SL-16 R/B 3.3 15:26:07 10° NNE 15:32:09 55° WNW 15:38:12 10° SW
EP 1 4.3 15:29:55 10° NW 15:32:32 55° NE 15:35:08 10° ESE
ATLAS CENTAUR R/B 1.2 15:31:27 10° NW 15:34:05 33° NNE 15:36:22 12° E
Cosmos 1602 3.6 15:32:30 10° SSE 15:35:01 32° E 15:37:32 10° NNE
UNK 4.1 15:31:46 10° NNE 15:36:20 70° WNW 15:40:54 10° SSW
NOSS 3-3 (A) 4.0 15:30:55 10° WSW 15:36:24 79° NW 15:43:10 10° NE
Cosmos 2237 Rocket 3.8 15:31:34 10° NW 15:36:50 40° WSW 15:42:04 10° S
Resurs 01 Rocket 1.9 15:34:09 10° SE 15:38:21 46° ENE 15:42:36 10° N
SJ-7 4.1 15:36:15 10° SSE 15:39:52 63° ENE 15:43:31 10° N
Cosmos 1833 Rocket 4.4 15:37:40 10° NNW 15:41:35 19° NNE 15:45:29 10° ENE
Cosmos 2058 3.8 15:40:07 10° SE 15:43:18 24° E 15:46:30 10° NE
Cosmos 773 Rocket 4.0 15:40:19 10° SSW 15:45:32 67° ESE 15:50:48 10° NNE
Cosmos 1570 Rocket 4.0 15:41:35 10° SSW 15:46:51 82° ESE 15:52:07 10° NNE
Cosmos 972 Rocket 4.3 15:43:51 10° NNW 15:48:41 46° ENE 15:53:54 10° SE
Cosmos 1544 Rocket 3.7 15:45:18 10° N 15:49:32 48° ENE 15:53:46 10° SSE
YAOGAN 1 2.8 15:47:48 10° S 15:52:04 75° WSW 15:56:21 10° NNW
Cosmos 1455 Rocket 3.8 15:49:26 10° NNW 15:53:39 55° W 15:57:51 10° S
Cosmos 1862 3.9 15:51:22 10° SSE 15:54:25 27° E 15:57:27 10° NNE
Cosmos 1975 Rocket 2.9 15:57:24 10° S 16:01:41 66° E 16:05:58 10° NNE
Okean O Rocket 3.5 16:01:30 12° NE 16:01:48 12° NE 16:03:30 10° NNE
SPOT 5 3.6 15:58:11 10° SE 16:02:46 36° ENE 16:07:31 10° N
Spot 4 Rocket 4.2 15:58:28 10° SSE 16:03:35 77° WSW 16:08:43 10° NNW
Cosmos 2227 Rocket 2.2 15:59:18 10° SSW 16:04:53 65° ESE 16:10:30 10° NE
Cosmos 2084 4.4 16:02:58 10° S 16:06:29 27° SE 16:08:04 21° E
SL-16 R/B 2.6 16:00:57 10° NW 16:06:36 68° WSW 16:12:12 10° SSE
ARIANE 6 FM1 Upper Stage 4.0 16:02:59 10° WNW 16:06:39 37° SW 16:10:18 10° SSE
Meteor 1-31 Rocket 3.3 16:05:43 20° ESE 16:07:18 29° ENE 16:10:21 10° N
NOAA 6 4.1 16:02:43 10° SSE 16:07:54 85° WSW 16:13:06 10° NNW
Tsikada Rocket 4.4 16:06:17 10° SSE 16:11:53 38° E 16:17:34 10° NNE
ATLAS 2AS CENTAUR R/B 3.4 16:06:11 10° WNW 16:12:42 43° N 16:17:32 17° ENE
Terra 3.1 16:12:16 20° ENE 16:13:21 21° NE 16:16:54 10° N
Cosmos 2208 Rocket 4.1 16:09:05 10° SSW 16:14:22 85° WNW 16:19:47 10° NNE
Meteor 2-17 Rocket 4.4 16:08:31 10° S 16:14:34 87° E 16:20:40 10° NNE
SJ-6B 2.4 16:11:46 10° SSE 16:15:11 66° ENE 16:18:38 10° N
ADEOS 4.4 16:13:30 20° E 16:15:58 29° NE 16:20:25 10° N
Cosmos 44 Rocket 3.4 16:13:36 10° SW 16:18:37 83° NW 16:23:14 13° NE
Cosmos 1816 Rocket 4.4 16:15:50 10° S 16:21:59 73° E 16:28:16 10° NNE
CSL-04 Debris 4.4 16:17:06 10° SE 16:22:18 48° ENE 16:27:29 10° N
USA 267 3.3 16:19:11 18° ENE 16:24:13 67° SSE 16:30:45 10° SW
Lacrosse 5 rocket 0.9 16:21:34 10° WNW 16:25:07 78° NNE 16:26:33 35° E
CZ-4 R/B 1.7 16:27:24 32° E 16:28:15 37° ENE 16:31:47 10° N
Cosmos 2034 Rocket 4.0 16:22:57 10° NNW 16:29:10 87° WSW 16:35:24 10° S
CSL-04 Rocket 3.7 16:24:28 10° SE 16:29:37 56° ENE 16:34:49 10° N
Cosmos 1420 Rocket 4.2 16:24:34 10° NNW 16:29:38 51° NE 16:32:32 24° ESE
Cosmos 1634 Rocket 4.0 16:25:30 10° N 16:31:49 63° ENE 16:38:02 10° SSE
Cosmos 2058 Rocket 4.4 16:29:05 10° N 16:32:09 22° NE 16:32:09 22° NE
ERS-1 Rocket 3.7 16:31:31 28° E 16:33:01 33° ENE 16:37:29 10° N
CZ-4B R/B 3.6 16:33:32 27° ESE 16:35:40 38° ENE 16:40:31 10° N
SeaSat 1 4.4 16:31:49 10° S 16:36:06 30° WSW 16:40:26 10° NW
Iridium 4 Rocket 3.5 16:34:04 10° N 16:38:29 40° ENE 16:39:41 33° ESE
CZ-4B DEB 4.3 16:36:10 18° SE 16:40:06 54° ENE 16:45:25 10° N
Cosmos 44 3.9 16:35:07 10° NW 16:40:16 47° NNE 16:42:25 31° E
Cosmos 1933 3.0 16:37:04 10° N 16:40:55 75° ENE 16:43:45 17° SSE
COSMO-SKYMED 1 3.0 16:40:05 10° N 16:44:09 58° WNW 16:48:11 10° SSW
Cosmos 2279 Rocket 4.0 16:40:53 10° N 16:47:02 58° ENE 16:52:09 15° SSE
Cosmos 1726 Rocket 3.8 16:42:35 10° N 16:47:02 49° ENE 16:48:18 38° ESE
Cosmos 2082 Rocket 4.1 16:44:12 10° NNW 16:48:02 18° N 16:50:33 14° NE
Cosmos 1943 3.3 16:43:02 10° NW 16:48:47 79° WSW 16:53:34 15° SSE
Cosmos 2297 Rocket 3.3 16:43:52 10° WSW 16:49:14 42° NW 16:54:39 10° NNE
Cosmos 2084 Rocket 3.6 16:48:32 10° NW 16:52:41 55° NNE 16:53:27 47° ENE
MINOTAUR IV R/B 4.4 16:49:49 10° SSW 16:54:15 84° ESE 16:57:11 21° NNE
Cosmos 1346 Rocket 3.8 16:55:17 10° SW 16:58:45 42° WNW 17:02:16 10° N
Cosmos 2098 Rocket 2.9 17:00:33 10° NNW 17:03:35 56° W 17:05:27 23° SSW
RESURS DK-1 3.1 17:00:51 10° NW 17:04:41 47° WSW 17:06:35 26° S
ATLAS CENTAUR R/B 2.0 17:05:08 10° WNW 17:07:30 32° WSW 17:07:30 32° WSW
Cosmos 972 4.3 17:02:58 10° NNW 17:07:54 89° ENE 17:10:11 34° SSE
Cosmos 2263 Rocket 2.3 17:02:54 10° SW 17:08:37 80° NW 17:14:21 10° NNE
Cosmos 1536 Rocket 3.4 17:04:33 10° S 17:08:55 83° ESE 17:13:21 10° NNE
Spot 2 Rocket 4.2 17:09:48 35° NE 17:09:48 35° NE 17:14:03 10° N
Cosmos 1603 3.6 17:03:55 10° NNW 17:09:35 81° NE 17:11:37 41° SE
Meteor 2-3 Rocket 3.8 17:04:34 10° S 17:10:03 52° E 17:15:37 10° NNE
Cosmos 2219 3.1 17:05:44 10° SSW 17:11:29 78° ESE 17:16:06 17° NE
CZ-4C R/B 3.2 17:07:04 10° WNW 17:12:00 41° N 17:15:19 24° NE
Cosmos 1606 Rocket 3.5 17:08:01 10° NNW 17:12:23 82° W 17:14:10 36° S
CZ-4B R/B 4.3 17:10:50 24° S 17:13:03 58° WSW 17:16:47 10° NNW
Resurs 01 Rocket 3.6 17:11:05 10° SSW 17:14:54 28° W 17:18:46 10° NNW
Cosmos 1538 Rocket 3.9 17:12:02 10° SSW 17:17:21 69° ESE 17:20:32 25° NE
Cosmos 2058 4.1 17:15:31 10° SW 17:19:12 40° WNW 17:22:56 10° N
Meteor 2-2 Rocket 4.2 17:18:14 10° N 17:24:12 67° ENE 17:25:25 53° SE
Cosmos 2056 Rocket 3.4 17:20:07 10° NNW 17:25:25 75° ENE 17:26:06 65° ESE
Cosmos 1833 Rocket 3.3 17:21:47 10° NNW 17:27:05 39° NE 17:27:13 39° NE
IRS-1A Rocket 4.2 17:29:04 59° ESE 17:29:46 64° ENE 17:35:21 10° NNW
Cosmos 2344 3.3 17:25:12 10° SW 17:32:41 87° SE 17:36:49 29° NE
MetOp-B 4.0 17:33:02 58° SSE 17:34:09 87° ENE 17:39:34 10° NNW
Cosmos 2082 3.6 17:30:51 10° SSW 17:36:36 88° WNW 17:39:40 29° NNE
Okean O Rocket 2.7 17:38:45 34° N 17:38:45 34° N 17:41:25 10° N
Cosmos-2242 4.1 17:36:03 10° N 17:38:38 36° N 17:38:38 36° N
Okean-O 3.9 17:42:10 32° N 17:42:10 32° N 17:44:39 10° N
Meteor 1-31 Rocket 4.3 17:39:42 27° WSW 17:40:22 29° W 17:43:27 10° NNW
SPOT 5 3.9 17:36:23 14° S 17:40:35 48° W 17:45:39 10° NNW
Cosmos 2084 4.1 17:40:38 10° WSW 17:43:47 49° WSW 17:43:47 49° WSW
MOS 1 4.4 17:45:35 43° S 17:47:31 73° WSW 17:53:14 10° NNW
Cosmos 2227 Rocket 3.5 17:44:05 10° WSW 17:49:18 37° NW 17:54:20 11° NNE
Terra 1.9 17:50:53 70° NW 17:50:53 70° NW 17:55:09 10° NNW
MOS 1-B 4.2 17:50:38 77° E 17:50:47 78° ENE 17:56:36 10° NNW
Cosmos 1624 Rocket 4.0 17:46:06 10° NNW 17:51:24 77° WSW 17:51:30 77° SW
COBE Rocket 4.0 17:47:57 10° N 17:52:45 68° WNW 17:53:38 54° SW
ADEOS 3.8 17:54:13 54° SSW 17:55:08 64° WSW 18:00:21 10° NNW
Cosmos 1371 Rocket 4.1 17:53:58 10° NNW 17:59:01 69° WSW 17:59:01 69° WSW
Lacrosse 5 rocket 3.3 17:58:24 10° WNW 17:59:58 22° W 17:59:58 22° W
Cosmos 909 Rocket 4.0 17:55:33 10° NW 18:01:55 79° NE 18:02:26 74° E
CZ-4 R/B 3.1 18:02:23 27° W 18:02:24 27° W 18:05:41 10° NW
ATLAS 2AS CENTAUR R/B 2.6 17:57:48 10° NW 18:04:36 67° NNE 18:04:58 66° NE
USA 267 3.2 18:06:30 67° ENE 18:07:26 82° N 18:14:00 10° W
BREEZE-M DEB (TANK) 4.5 17:55:15 10° W 18:07:33 38° SSW 18:08:11 37° SSW
Cosmos 2058 Rocket 4.4 18:06:28 10° NNW 18:09:18 37° NNW 18:09:18 37° NNW
ERS-1 Rocket 3.6 18:11:21 50° WSW 18:11:34 50° W 18:16:27 10° NNW
CZ-4B R/B 3.9 18:15:23 44° SW 18:16:10 47° W 18:21:18 10° NNW
Cosmos 44 4.2 18:16:21 10° NW 18:20:43 52° W 18:20:43 52° W
Gbstr 26 Del rocket 4.4 18:21:51 10° WSW 18:28:25 65° SSW 18:28:25 65° SSW
Cosmos 2082 Rocket 3.6 18:28:42 10° NNW 18:32:22 29° N 18:32:22 29° N
Cosmos 2297 Rocket 4.4 18:30:44 10° WNW 18:34:48 20° NNW 18:37:44 14° NNE
USA 281 4.3 18:44:18 33° NNE 18:44:18 33° NNE 18:49:13 10° NNW
Cosmos 2263 Rocket 4.0 18:48:33 10° W 18:53:23 27° NNW 18:56:03 20° N
CZ-4C R/B 3.4 18:55:46 10° WNW 19:00:16 43° NNW 19:00:16 43° NNW
Cosmos 1833 Rocket 4.2 19:05:45 10° NW 19:08:54 33° NW 19:08:54 33° NW
Okean O Rocket 4.4 19:15:59 16° NW 19:15:59 16° NW 19:17:09 10° NW
Cosmos 2227 Rocket 4.5 19:31:07 10° WNW 19:35:00 18° NNW 19:36:09 17° N
Cosmos 2344 4.2 19:40:44 10° W 19:46:52 48° NNW 19:46:52 48° NNW
ATLAS 2AS CENTAUR R/B 4.1 19:48:55 10° NW 19:52:23 30° WNW 19:52:23 30° WNW
ACS3 Solar Sail 4.1 22:28:36 10° NNE 22:29:46 15° NE 22:29:46 15° NE
CENTAUR R/B 3.8 23:29:13 43° NNE 23:29:13 43° NNE 23:35:31 10° ENE
ADEOS II 4.2 23:50:28 10° NNE 23:52:51 23° NE 23:52:51 23° NE
